sat.trackr.live / text

‹ back to catalog

STARLINK-4679

NORAD 53782 · 2022-111K

PAYLOAD ACTIVE UNKNOWN

§ Identity

Operator
Country
US
Launch date
2022-09-11
Launch site
AFETR
Launch vehicle
Mass (kg)
RCS (m²)

Purposes: comms

External: N2YO · Heavens-Above · Gunter

§ Orbital elements

Epoch: 2026-05-25T04:00:03.998880Z

Period
91.27 min
Inclination
53.2165°
Eccentricity
0.0000892
Mean motion
15.77703748 rev/d
Perigee alt
336.3 km
Apogee alt
337.5 km
Semi-major
6,715.1 km
B*
3.5326e-3
RAAN
273.3376°
Arg perigee
36.3977°
Mean anomaly
146.5511°
Rev number
596

§ Raw data

STARLINK-46791 53782U 22111K   26145.16671295  .00651605  00000+0  35326-2 0  99902 53782  53.2165 273.3376 0000892  36.3977 146.5511 15.77703748  5966

JSON: /api/v1/satellites/53782 · /tle

For live sub-satellite position, see the globe view (requires WebGL).

§ Visibility from observer

Set your observer location to see the next 7 days of passes ≥ 10°. The values pass through the URL so the page stays shareable.

No JS? Fill the form by hand. The geolocation button needs JavaScript.